User: anonymous   Login
Location: ??????????
(54.7560°N, 39.1389°E)
Time: 23:27:33
(UTC+00:00)
Language:

Cosmos 1570 Rocket - Orbit

View from above orbital plane
View from above orbital plane
View from above satellite
View from above satellite

Ground track
Ground track

The orbit data is extracted from the following two-line orbital elements,

1 15032U 84056B   25188.09445288  .00000116  00000-0  48795-4 0  9993
2 15032  74.0699  95.5633 0017949 237.0548 122.8880 14.35943166148653
Epoch (UTC): 07 July 2025 02:16:00
Eccentricity: 0.0017949
inclination: 74.0699°
perigee height: 759 km
apogee height: 785 km
right ascension of ascending node: 95.5633°
argument of perigee: 237.0548°
revolutions per day: 14.35943166
mean anomaly at epoch: 122.8880°
orbit number at epoch: 14865

The dashed part of the orbit path shows where the satellite is in the earth's shadow,  

DLR